St. Johns, AZ

12:35 AM MST on May 25, 2017 (GMT -0700)
Saint Johns Industrial

Weather History for KSJN - December, 2012

Change the Weather History Date:

Sunday, December 2, 2012

  Actual Average (KLSB) Record (KLSB)
Temperature  
Mean Temperature 40 °F -  
Max Temperature 54 °F 60 °F 66 °F (2013)
Min Temperature 25 °F 25 °F 17 °F (2015)
Degree Days  
Heating Degree Days 26    
Moisture  
Dew Point 15 °F    
Average Humidity 36    
Maximum Humidity 89    
Minimum Humidity 10    
Precipitation  
Precipitation 0.00 in - - ()
Sea Level Pressure  
Sea Level Pressure 30.06 in    
Wind  
Wind Speed 3 mph (SW)    
Max Wind Speed 18 mph    
Max Gust Speed 28 mph    
Visibility 10 miles    
Events      
Averages and records for this station are not official NWS values.
T = Trace of Precipitation, MM = Missing Value Source: NWS Daily Summary

Daily Weather History Graph

Daily Weather History Graph

Search for Another Location

Airport or City:

Trip Planner

Search our weather history database for the weather conditions in past years. The results will help you decide how hot, cold, wet, or windy it might be!

Date:

Astronomy

Dec. 02, 2012 Rise Set
Actual Time 7:07 AM MST 5:06 PM MST
Civil Twilight 6:39 AM MST 5:34 PM MST
Nautical Twilight 6:08 AM MST 6:05 PM MST
Astronomical Twilight 5:38 AM MST 6:36 PM MST
Moon 8:53 PM MST (12/2) 10:02 AM MST (12/2)
Length of Visible Light 10h 54m
Length of Day
9h 59m
Waning Gibbous, 85% of the Moon is Illuminated
Dec 2
Waning Gibbous
Dec 6
Last Quarter
Dec 13
New
Dec 19
First Quarter
Dec 28
Full

Hourly Weather History & Observations

Time (MST) Temp. Windchill Dew Point Humidity Pressure Visibility Wind Dir Wind Speed Gust Speed Precip Events Conditions
12:54 AM 30.0 °F - 10.9 °F 45% 30.09 in 7.0 mi Calm Calm - N/A   Clear
1:54 AM 32.0 °F - 10.9 °F 42% 30.06 in 10.0 mi Calm Calm - N/A   Clear
2:54 AM 25.0 °F - 10.0 °F 53% 30.09 in 10.0 mi Calm Calm - N/A   Clear
3:54 AM 28.0 °F - 10.0 °F 47% 30.08 in 10.0 mi Calm Calm - N/A   Clear
4:54 AM 25.0 °F - 9.0 °F 51% 30.10 in 10.0 mi Calm Calm - N/A   Clear
5:54 AM 28.0 °F - 10.9 °F 49% 30.13 in 10.0 mi Calm Calm - N/A   Clear
6:54 AM 19.9 °F 13.4 °F 8.1 °F 60% 30.18 in 10.0 mi South 4.6 mph - N/A   Clear
7:54 AM 26.1 °F 20.5 °F 10.0 °F 51% 30.17 in 10.0 mi NNE 4.6 mph - N/A   Clear
8:54 AM 36.0 °F - 10.9 °F 36% 30.14 in 10.0 mi Calm Calm - N/A   Clear
9:54 AM 45.0 °F - 12.0 °F 26% 30.12 in 10.0 mi Calm Calm - N/A   Clear
10:54 AM 52.0 °F - 10.9 °F 19% 30.10 in 10.0 mi NNE 3.5 mph - N/A   Clear
11:54 AM 60.1 °F - 10.9 °F 14% 30.04 in 10.0 mi Calm Calm - N/A   Clear
12:54 PM 66.0 °F - 8.1 °F 10% 29.98 in 10.0 mi SW 16.1 mph 25.3 mph N/A   Clear
1:54 PM 66.2 °F - 8.6 °F 11% 30.08 in 10.0 mi WSW 18.4 mph 27.6 mph N/A   Clear
2:54 PM 64.9 °F - 12.0 °F 13% 29.98 in 10.0 mi WSW 16.1 mph 27.6 mph N/A   Clear
3:54 PM 64.0 °F - 14.0 °F 14% 29.98 in 10.0 mi WSW 16.1 mph - N/A   Clear
4:54 PM 59.0 °F - 14.0 °F 17% 30.01 in 10.0 mi SW 11.5 mph - N/A   Clear
5:54 PM 53.1 °F - 17.1 °F 24% 30.02 in 10.0 mi WSW 4.6 mph - N/A   Clear
6:54 PM 52.0 °F - 17.1 °F 25% 30.07 in 10.0 mi Calm Calm - N/A   Clear
7:54 PM 51.1 °F - 18.0 °F 27% 30.05 in 10.0 mi SSE 4.6 mph - N/A   Clear
8:54 PM 48.9 °F - 17.1 °F 28% 30.04 in 10.0 mi Calm Calm - N/A   Clear
9:54 PM 44.1 °F 40.8 °F 16.0 °F 32% 30.02 in 10.0 mi ESE 5.8 mph - N/A   Clear
10:54 PM 39.9 °F 37.8 °F 15.1 °F 36% 30.01 in 10.0 mi SW 3.5 mph - N/A   Clear
11:54 PM 37.9 °F - 16.0 °F 41% 29.98 in 9.0 mi Calm Calm - N/A   Clear